JAL687 RJCC-RJAA

Flight info

Callsign JAL687
Flight time N/A
Altitude 35000
Route REZOT2 DALBI Y120 RURUD Y125 JUGEM Y30 SWAMP SWAMPN
Aircraft MD11/M-V/N

Departure

Time 2026-05-05 12:17
Airport New Chitose Airport (RJCC)

Arrival

Time N/A
Airport Narita International Airport (RJAA)
Time Latitude Longitude Altitude Speed Heading
2026-05-05 11:40 42.78919 141.67840 84 ft 0 kts 173°
2026-05-05 12:07 42.78927 141.67839 84 ft 2 kts 173°
2026-05-05 12:07 42.78944 141.67837 84 ft 3 kts 173°
2026-05-05 12:07 42.78964 141.67833 84 ft 3 kts 166°
2026-05-05 12:07 42.78982 141.67822 84 ft 3 kts 143°
2026-05-05 12:08 42.78996 141.67802 84 ft 3 kts 120°
2026-05-05 12:08 42.79003 141.67775 84 ft 3 kts 98°
2026-05-05 12:08 42.79003 141.67753 84 ft 0 kts 84°
2026-05-05 12:09 42.79004 141.67764 84 ft 4 kts 84°
2026-05-05 12:09 42.79009 141.67833 84 ft 11 kts 84°
2026-05-05 12:09 42.79017 141.67963 84 ft 17 kts 84°
2026-05-05 12:10 42.79002 141.68141 84 ft 22 kts 114°
2026-05-05 12:10 42.78913 141.68332 84 ft 26 kts 134°
2026-05-05 12:10 42.78811 141.68411 84 ft 9 kts 131°
2026-05-05 12:10 42.78803 141.68488 84 ft 8 kts 86°
2026-05-05 12:11 42.78809 141.68555 84 ft 6 kts 86°
2026-05-05 12:11 42.78794 141.68600 84 ft 6 kts 154°
2026-05-05 12:11 42.78745 141.68618 84 ft 9 kts 171°
2026-05-05 12:11 42.78668 141.68634 84 ft 13 kts 171°
2026-05-05 12:12 42.78564 141.68652 84 ft 17 kts 174°
2026-05-05 12:12 42.78439 141.68671 84 ft 20 kts 173°
2026-05-05 12:12 42.78292 141.68694 84 ft 23 kts 173°
2026-05-05 12:12 42.78126 141.68721 84 ft 25 kts 173°
2026-05-05 12:13 42.77948 141.68759 84 ft 27 kts 173°
2026-05-05 12:13 42.77756 141.68788 84 ft 29 kts 171°
2026-05-05 12:13 42.77552 141.68824 84 ft 30 kts 173°
2026-05-05 12:13 42.77336 141.68860 84 ft 32 kts 173°
2026-05-05 12:14 42.77111 141.68898 84 ft 33 kts 173°
2026-05-05 12:14 42.76879 141.68942 84 ft 34 kts 172°
2026-05-05 12:14 42.76638 141.68978 84 ft 35 kts 174°
2026-05-05 12:14 42.76391 141.69015 84 ft 36 kts 174°
2026-05-05 12:15 42.76212 141.69050 84 ft 12 kts 161°
2026-05-05 12:15 42.76170 141.69117 84 ft 9 kts 96°
2026-05-05 12:15 42.76174 141.69218 84 ft 13 kts 83°
2026-05-05 12:15 42.76186 141.69353 84 ft 16 kts 83°
2026-05-05 12:16 42.76200 141.69521 84 ft 19 kts 83°
2026-05-05 12:16 42.76260 141.69632 84 ft 13 kts
2026-05-05 12:16 42.76343 141.69625 84 ft 16 kts 354°
2026-05-05 12:16 42.76812 141.69547 84 ft 127 kts 353°
2026-05-05 12:17 42.77936 141.69343 618 ft 176 kts 350°
2026-05-05 12:17 42.79110 141.69182 2082 ft 172 kts
2026-05-05 12:17 42.80160 141.69930 3251 ft 173 kts 40°
2026-05-05 12:17 42.80678 141.71432 4042 ft 189 kts 76°
2026-05-05 12:18 42.80691 141.72024 4272 ft 196 kts 87°
2026-05-05 12:18 42.79425 141.74809 5344 ft 235 kts 143°
2026-05-05 12:19 42.72263 141.72225 7392 ft 189 kts 211°
2026-05-05 12:20 42.70939 141.71627 7992 ft 215 kts 199°
2026-05-05 12:20 42.69331 141.71456 8541 ft 248 kts 184°
2026-05-05 12:20 42.67613 141.71642 9817 ft 245 kts 179°
2026-05-05 12:20 42.65918 141.71997 11028 ft 249 kts 175°
2026-05-05 12:21 42.64193 141.72055 11818 ft 250 kts 195°
2026-05-05 12:21 42.62674 141.71027 12697 ft 242 kts 223°
2026-05-05 12:21 42.61736 141.69175 13559 ft 239 kts 249°
2026-05-05 12:21 42.61330 141.66989 14456 ft 241 kts 259°
2026-05-05 12:22 42.61008 141.64740 15294 ft 245 kts 260°
2026-05-05 12:22 42.60704 141.62449 16128 ft 248 kts 261°
2026-05-05 12:22 42.60403 141.60123 16942 ft 252 kts 261°
2026-05-05 12:22 42.60102 141.57767 17734 ft 255 kts 261°
2026-05-05 12:23 42.59803 141.55384 18505 ft 258 kts 261°
2026-05-05 12:23 42.59502 141.52963 19260 ft 261 kts 261°
2026-05-05 12:23 42.59201 141.50515 19995 ft 265 kts 261°
2026-05-05 12:23 42.58900 141.48033 20706 ft 268 kts 261°
2026-05-05 12:24 42.58598 141.45517 21399 ft 271 kts 262°
2026-05-05 12:24 42.58298 141.42975 22075 ft 275 kts 262°
2026-05-05 12:24 42.57999 141.40395 22736 ft 278 kts 262°
2026-05-05 12:24 42.57699 141.37787 23378 ft 281 kts 261°
2026-05-05 12:25 42.57363 141.35157 24003 ft 285 kts 261°
2026-05-05 12:25 42.56984 141.32508 24608 ft 288 kts 258°
2026-05-05 12:25 42.56537 141.29845 25195 ft 291 kts 260°
2026-05-05 12:25 42.56142 141.27144 25749 ft 294 kts 254°
2026-05-05 12:26 42.55354 141.24563 26297 ft 298 kts 247°
2026-05-05 12:26 42.54509 141.22001 26913 ft 297 kts 248°
2026-05-05 12:26 42.53697 141.19438 27510 ft 296 kts 249°
2026-05-05 12:26 42.52908 141.16902 28062 ft 295 kts 248°
2026-05-05 12:27 42.52082 141.14357 28591 ft 294 kts 248°
2026-05-05 12:27 42.51708 141.13236 28808 ft 295 kts 247°
2026-05-05 12:27 42.51623 141.12993 28851 ft 295 kts 246°
2026-05-05 12:27 42.50692 141.10491 29225 ft 299 kts 246°
2026-05-05 12:28 42.50366 141.09506 29363 ft 300 kts 248°
2026-05-05 12:28 42.50340 141.09422 29375 ft 300 kts 248°
2026-05-05 12:28 42.49235 141.07010 29702 ft 307 kts 230°
2026-05-05 12:28 42.47654 141.05040 30081 ft 311 kts 225°
2026-05-05 12:29 42.46037 141.03079 30428 ft 314 kts 225°
2026-05-05 12:29 42.44426 141.01065 30782 ft 316 kts 226°
2026-05-05 12:29 42.42827 140.99004 31123 ft 319 kts 227°
2026-05-05 12:29 42.41232 140.96908 31458 ft 321 kts 227°
2026-05-05 12:30 42.39631 140.94784 31784 ft 324 kts 227°
2026-05-05 12:30 42.38020 140.92634 32102 ft 326 kts 227°
2026-05-05 12:30 42.36949 140.91200 32310 ft 328 kts 227°
2026-05-05 12:30 42.34774 140.88282 32718 ft 331 kts 227°
2026-05-05 12:31 42.33136 140.86079 33015 ft 333 kts 227°
2026-05-05 12:31 42.31487 140.83859 33308 ft 336 kts 227°
2026-05-05 12:31 42.29827 140.81621 33595 ft 338 kts 228°
2026-05-05 12:31 42.28724 140.80134 33781 ft 340 kts 228°
2026-05-05 12:32 42.27047 140.77869 34059 ft 342 kts 228°
2026-05-05 12:32 42.25363 140.75591 34332 ft 344 kts 228°
2026-05-05 12:32 42.23667 140.73294 34600 ft 346 kts 228°
2026-05-05 12:32 42.21963 140.70979 34859 ft 348 kts 228°
2026-05-05 12:33 42.20249 140.68644 35004 ft 354 kts 228°
2026-05-05 12:33 42.18520 140.66280 35001 ft 353 kts 228°
2026-05-05 12:33 42.15116 140.61584 34999 ft 349 kts 229°
2026-05-05 12:34 42.11694 140.56903 34998 ft 351 kts 227°
2026-05-05 12:34 42.08050 140.52533 34986 ft 353 kts 217°
2026-05-05 12:35 42.05810 140.51139 34991 ft 360 kts 200°
2026-05-05 12:35 42.03348 140.50384 35000 ft 364 kts 196°
2026-05-05 12:35 41.98450 140.48783 34998 ft 361 kts 198°
2026-05-05 12:36 41.93602 140.47011 34998 ft 361 kts 199°
2026-05-05 12:36 41.88769 140.45181 34997 ft 361 kts 199°
2026-05-05 12:37 41.83972 140.43341 34997 ft 361 kts 200°
2026-05-05 12:37 41.79148 140.41473 34997 ft 361 kts 200°
2026-05-05 12:38 41.74331 140.39586 34997 ft 361 kts 200°
2026-05-05 12:38 41.69523 140.37669 34997 ft 360 kts 200°
2026-05-05 12:39 41.64718 140.35751 34997 ft 361 kts 199°
2026-05-05 12:39 41.59833 140.34132 34996 ft 362 kts 195°
2026-05-05 12:40 41.57305 140.33919 34991 ft 369 kts 179°
2026-05-05 12:40 41.54743 140.34352 34999 ft 372 kts 176°
2026-05-05 12:40 41.49610 140.35148 34998 ft 370 kts 178°
2026-05-05 12:41 41.44484 140.35774 34998 ft 370 kts 179°
2026-05-05 12:41 41.39354 140.36339 34997 ft 370 kts 179°
2026-05-05 12:42 41.34224 140.36883 34997 ft 370 kts 179°
2026-05-05 12:42 41.29095 140.37417 34997 ft 370 kts 179°
2026-05-05 12:43 41.24005 140.37944 34997 ft 370 kts 179°
2026-05-05 12:43 41.18841 140.38477 34997 ft 370 kts 179°
2026-05-05 12:44 41.13715 140.39001 34997 ft 370 kts 179°
2026-05-05 12:44 41.08588 140.39523 34997 ft 370 kts 179°
2026-05-05 12:45 41.03456 140.40042 34997 ft 370 kts 179°
2026-05-05 12:45 40.98363 140.40554 34997 ft 370 kts 179°
2026-05-05 12:46 40.93234 140.41066 34997 ft 370 kts 179°
2026-05-05 12:46 40.88108 140.41576 34997 ft 370 kts 179°
2026-05-05 12:47 40.82973 140.42081 34997 ft 369 kts 179°
2026-05-05 12:47 40.77845 140.42577 34997 ft 369 kts 180°
2026-05-05 12:48 40.72712 140.43066 34997 ft 369 kts 180°
2026-05-05 12:48 40.67589 140.43543 34997 ft 369 kts 180°
2026-05-05 12:49 40.62459 140.44006 34997 ft 369 kts 180°
2026-05-05 12:49 40.57325 140.44448 34997 ft 369 kts 180°
2026-05-05 12:50 40.52233 140.44856 34997 ft 369 kts 180°
2026-05-05 12:50 40.47105 140.45253 34997 ft 369 kts 179°
2026-05-05 12:51 40.41986 140.45936 34997 ft 370 kts 178°
2026-05-05 12:51 40.36924 140.47352 34996 ft 374 kts 169°
2026-05-05 12:52 40.31874 140.48963 34996 ft 373 kts 171°
2026-05-05 12:52 40.26815 140.50453 34996 ft 373 kts 171°
2026-05-05 12:53 40.21751 140.51902 34996 ft 373 kts 171°
2026-05-05 12:53 40.16716 140.53319 34996 ft 372 kts 172°
2026-05-05 12:54 40.09077 140.55419 34996 ft 372 kts 172°
2026-05-05 12:55 40.04034 140.56757 34996 ft 372 kts 172°
2026-05-05 12:55 39.98979 140.58226 34996 ft 374 kts 168°
2026-05-05 12:56 39.93946 140.59935 34997 ft 374 kts 168°
2026-05-05 12:56 39.88899 140.61576 34997 ft 375 kts 171°
2026-05-05 12:57 39.83692 140.63108 35000 ft 393 kts 171°
2026-05-05 12:57 39.78209 140.64664 34999 ft 413 kts 171°
2026-05-05 12:58 39.72443 140.66271 34999 ft 433 kts 171°
2026-05-05 12:58 39.66413 140.67921 34999 ft 452 kts 171°
2026-05-05 12:59 39.60119 140.69593 34999 ft 470 kts 172°
2026-05-05 12:59 39.53607 140.71392 34999 ft 488 kts 169°
2026-05-05 13:00 39.43719 140.74760 34998 ft 488 kts 169°
2026-05-05 13:01 39.30468 140.78612 34997 ft 488 kts 171°
2026-05-05 13:01 39.23838 140.80480 34997 ft 488 kts 171°
2026-05-05 13:02 39.17203 140.82337 34997 ft 488 kts 171°
2026-05-05 13:02 39.10563 140.84193 34997 ft 488 kts 171°
2026-05-05 13:03 39.03930 140.86022 34997 ft 488 kts 171°
2026-05-05 13:03 38.97335 140.87816 34997 ft 487 kts 171°
2026-05-05 13:04 38.90694 140.89587 34997 ft 487 kts 171°
2026-05-05 13:04 38.84036 140.91301 34997 ft 487 kts 172°
2026-05-05 13:05 38.77422 140.93254 34997 ft 489 kts 168°
2026-05-05 13:05 38.70799 140.95215 34997 ft 487 kts 171°
2026-05-05 13:06 38.64153 140.96931 34997 ft 487 kts 172°
2026-05-05 13:06 38.57536 140.98829 34997 ft 489 kts 168°
2026-05-05 13:07 38.50951 141.01032 34997 ft 488 kts 169°
2026-05-05 13:07 38.44333 141.02958 34997 ft 488 kts 171°
2026-05-05 13:08 38.37696 141.04790 34997 ft 488 kts 171°
2026-05-05 13:08 38.31093 141.06592 34997 ft 488 kts 171°
2026-05-05 13:09 38.24452 141.08390 34997 ft 487 kts 171°
2026-05-05 13:09 38.17808 141.10169 34997 ft 487 kts 171°
2026-05-05 13:10 38.11169 141.11921 34997 ft 487 kts 171°
2026-05-05 13:10 38.04524 141.13630 34997 ft 487 kts 172°
2026-05-05 13:11 37.97878 141.15344 34997 ft 488 kts 170°
2026-05-05 13:11 37.91185 141.16116 34995 ft 481 kts 186°
2026-05-05 13:12 37.84721 141.14298 34996 ft 473 kts 204°
2026-05-05 13:12 37.78821 141.10683 34996 ft 473 kts 204°
2026-05-05 13:13 37.73517 141.08840 34997 ft 477 kts 196°
2026-05-05 13:13 37.66079 141.06150 34997 ft 475 kts 200°
2026-05-05 13:14 37.59833 141.03629 34997 ft 475 kts 201°
2026-05-05 13:14 37.53550 141.01043 34997 ft 475 kts 201°
2026-05-05 13:15 37.47279 140.98419 34997 ft 475 kts 200°
2026-05-05 13:15 37.40923 140.96109 34687 ft 473 kts 198°
2026-05-05 13:16 37.37760 140.95028 34110 ft 468 kts 199°
2026-05-05 13:16 37.35697 140.94267 33710 ft 465 kts 199°
2026-05-05 13:16 37.31580 140.92688 32919 ft 459 kts 200°
2026-05-05 13:16 37.29569 140.91897 32534 ft 456 kts 200°
2026-05-05 13:17 37.26557 140.90707 31959 ft 452 kts 200°
2026-05-05 13:17 37.23573 140.89521 31393 ft 448 kts 200°
2026-05-05 13:17 37.20616 140.88341 30835 ft 444 kts 200°
2026-05-05 13:17 37.16742 140.86786 30114 ft 439 kts 201°
2026-05-05 13:18 37.14782 140.85995 29750 ft 436 kts 201°
2026-05-05 13:18 37.11909 140.84827 29214 ft 432 kts 201°
2026-05-05 13:18 37.09063 140.83659 28674 ft 428 kts 201°
2026-05-05 13:18 37.06245 140.82492 28147 ft 425 kts 201°
2026-05-05 13:19 37.03435 140.81393 27622 ft 422 kts 200°
2026-05-05 13:19 37.00615 140.80417 27100 ft 419 kts 199°
2026-05-05 13:19 36.97816 140.79431 26580 ft 416 kts 198°
2026-05-05 13:19 36.95076 140.78494 26075 ft 412 kts 199°
2026-05-05 13:20 36.92331 140.77491 25564 ft 409 kts 200°
2026-05-05 13:20 36.89587 140.76449 25053 ft 405 kts 200°
2026-05-05 13:20 36.86944 140.75428 24559 ft 402 kts 200°
2026-05-05 13:20 36.84283 140.74391 24060 ft 399 kts 200°
2026-05-05 13:21 36.81648 140.73360 23566 ft 396 kts 201°
2026-05-05 13:21 36.79025 140.72329 23073 ft 393 kts 201°
2026-05-05 13:21 36.76434 140.71308 22586 ft 390 kts 201°
2026-05-05 13:21 36.73862 140.70289 22104 ft 387 kts 201°
2026-05-05 13:22 36.71307 140.69272 21623 ft 384 kts 201°
2026-05-05 13:22 36.68771 140.68256 21146 ft 381 kts 201°
2026-05-05 13:22 36.66263 140.67243 20672 ft 378 kts 201°
2026-05-05 13:22 36.63775 140.66228 20204 ft 375 kts 201°
2026-05-05 13:23 36.61298 140.65237 19737 ft 373 kts 201°
2026-05-05 13:23 36.58824 140.64308 19272 ft 371 kts 199°
2026-05-05 13:23 36.56339 140.63463 18807 ft 368 kts 200°
2026-05-05 13:23 36.53890 140.62575 18352 ft 366 kts 199°
2026-05-05 13:24 36.51456 140.61692 17894 ft 363 kts 200°
2026-05-05 13:24 36.49052 140.60775 17441 ft 360 kts 201°
2026-05-05 13:24 36.46670 140.59843 16989 ft 358 kts 201°
2026-05-05 13:24 36.44310 140.58906 16540 ft 355 kts 201°
2026-05-05 13:25 36.41967 140.57965 16091 ft 353 kts 201°
2026-05-05 13:25 36.39661 140.57029 15562 ft 343 kts 201°
2026-05-05 13:25 36.37382 140.56141 14639 ft 343 kts 200°
2026-05-05 13:25 36.35125 140.55322 13786 ft 342 kts 199°
2026-05-05 13:26 36.32852 140.54523 12990 ft 335 kts 202°
2026-05-05 13:26 36.30788 140.53264 12175 ft 327 kts 214°
2026-05-05 13:26 36.28938 140.51665 11381 ft 322 kts 219°
2026-05-05 13:26 36.27178 140.49982 10650 ft 317 kts 221°
2026-05-05 13:27 36.25452 140.48304 10391 ft 315 kts 221°
2026-05-05 13:27 36.23720 140.46620 10260 ft 318 kts 221°
2026-05-05 13:27 36.21982 140.44929 10064 ft 316 kts 221°
2026-05-05 13:27 36.20282 140.43276 9755 ft 300 kts 221°
2026-05-05 13:28 36.18704 140.41741 9604 ft 278 kts 221°
2026-05-05 13:28 36.17243 140.40317 9457 ft 257 kts 221°
2026-05-05 13:28 36.15874 140.38983 9095 ft 247 kts 222°
2026-05-05 13:28 36.14520 140.37661 8478 ft 248 kts 222°
2026-05-05 13:29 36.13170 140.36342 7917 ft 246 kts 222°
2026-05-05 13:29 36.11830 140.35029 7370 ft 244 kts 222°
2026-05-05 13:29 36.10501 140.33726 6823 ft 242 kts 222°
2026-05-05 13:29 36.09186 140.32432 6269 ft 241 kts 222°
2026-05-05 13:30 36.07863 140.31126 5576 ft 246 kts 222°
2026-05-05 13:30 36.06535 140.29811 4915 ft 248 kts 221°
2026-05-05 13:30 36.05210 140.28491 4269 ft 245 kts 220°
2026-05-05 13:30 36.03881 140.27186 3596 ft 243 kts 219°
2026-05-05 13:31 36.02552 140.25908 3330 ft 242 kts 218°
2026-05-05 13:31 36.01195 140.24659 3194 ft 243 kts 215°
2026-05-05 13:31 35.99762 140.23562 3081 ft 243 kts 204°
2026-05-05 13:31 35.98113 140.23302 3000 ft 242 kts 175°
2026-05-05 13:32 35.96500 140.23915 3027 ft 243 kts 158°
2026-05-05 13:32 35.94944 140.24730 3015 ft 243 kts 155°
2026-05-05 13:32 35.93480 140.25756 3025 ft 242 kts 149°
2026-05-05 13:32 35.92042 140.26805 3054 ft 237 kts 149°
2026-05-05 13:33 35.90653 140.27797 3023 ft 231 kts 150°
2026-05-05 13:33 35.89249 140.28747 2980 ft 228 kts 152°
2026-05-05 13:33 35.87828 140.29605 2761 ft 232 kts 154°
2026-05-05 13:33 35.86332 140.30525 2122 ft 245 kts 154°
2026-05-05 13:34 35.84828 140.31460 1724 ft 236 kts 152°
2026-05-05 13:34 35.83468 140.32466 1404 ft 221 kts 149°
2026-05-05 13:34 35.82197 140.33382 1160 ft 201 kts 149°
2026-05-05 13:34 35.81065 140.34203 996 ft 177 kts 149°
2026-05-05 13:35 35.80028 140.34952 669 ft 170 kts 149°
2026-05-05 13:35 35.79057 140.35656 532 ft 156 kts 149°
2026-05-05 13:35 35.78126 140.36323 310 ft 153 kts 150°
2026-05-05 13:35 35.77196 140.36986 150 ft 151 kts 150°